www.pogodaiklimat.ru

Погода и климат >> Архив погоды >> Россия >> Приморский край >> Терней


ПОГОДА в Тернее

  • Прогноз погоды в Тернее
  • Монитор погоды в Тернее
  • Климат города

АРХИВ ПОГОДЫ в Тернее

Время (UTC), дата Ветер
(напр.,м/с)
 
Видим.   Явления Облачность Т
(С)
Тd
(С)
f
(%)
Тe
(С)
Тes
(С)
Комфортность P
(гПа)
Po
(гПа)
Тmin
(С)
Tmax
(С)
R
(мм)
R24
(мм)
S
(см)
00 10.08 В 2 50 км 10/10 300 м
[St]
+18.8 +15.7 82 +20 +20 1009.2 1002.0
03 10.08 В 2
{10}
50 км 10/10 300 м
[St]
+20.5 +16.3 77 +24 +24 комфорт 1009.3 1002.1
06 10.08 В 3-11
{11}
50 км 9/9 300 м
[St]
+19.7 +15.5 77 +22 +23 комфорт 1009.4 1002.2
09 10.08 В 3
{12}
50 км 8/8 300 м
[St]
+18.5 +15.1 81 +19 +19 1009.9 1002.6 +21.0
12 10.08 В 2 20 км 10/10 300 м
[St]
+18.2 +14.7 80 +19 +19 1010.8 1003.5
15 10.08 СВ 1 20 км 10/10 300 м
[St]
+18.0 +14.9 82 +19 +19 1010.7 1003.4
18 10.08 СЗ 1 20 км 10/10 300 м
[St]
+16.6 +15.8 95 +17 +17 1011.0 1003.7
21 10.08 штиль 0 10 км слабый ливневой дождь 10/10 300 м
[Cb cap]
+16.7 +16.1 96 +17 +17 1011.3 1004.0 +16.5 0.9
00 11.08 В 1 10 км слабая морось {ливн. осадки} 10/10 300 м
[St]
+18.0 +16.9 93 +19 +19 1011.5 1004.2
03 11.08 СВ 1 50 км {морось} 10/5 600 м
[Sc As trans]
+19.4 +16.6 84 +22 +26 комфорт 1011.5 1004.3
06 11.08 В 2
{10}
50 км {морось} 10/8 600 м
[Sc As trans]
+19.7 +16.0 79 +22 +23 комфорт 1011.2 1004.0
09 11.08 В 2
{11}
50 км 10/8 600 м
[Sc Ac trans]
+18.3 +15.4 83 +19 +19 1011.7 1004.5 +20.4 2
12 11.08 штиль 0 20 км 10/10 600 м
[Sc]
+17.9 +15.0 83 +18 +18 1012.9 1005.6
15 11.08 В 2 20 км 10/10 600 м
[Sc]
+17.9 +14.9 83 +18 +18 1012.6 1005.4
18 11.08 ЮВ 1 20 км 10/10 600 м
[Sc]
+17.7 +14.7 83 +19 +19 1013.0 1005.7
21 11.08 В 1 50 км 10/10 600 м
[Sc]
+17.2 +14.4 84 +18 +18 1013.8 1006.5 +17.1
00 12.08 В 2 50 км 10/10 600 м
[Sc]
+17.4 +14.3 82 +18 +18 1014.7 1007.4
03 12.08 В 2 50 км 10/10 600 м
[Sc]
+17.8 +14.2 79 +18 +18 1014.7 1007.4
06 12.08 В 3 50 км {ливн. осадки} 10/10 600 м
[Sc diur, vesp]
+16.8 +13.8 82 +17 +17 1014.7 1007.4
09 12.08 В 2
{11}
50 км 10/6 600 м
[Sc diur, vesp As trans]
+16.2 +13.6 85 +16 +16 1015.1 1007.8 +18.2 0.0
12 12.08 В 2-10
{10}
20 км 10/6 600 м
[Sc diur, vesp Ac und]
+15.8 +13.2 85 +16 +16 1015.9 1008.5
15 12.08 В 1 20 км 10/8 600 м
[Sc Ac und]
+15.5 +12.8 84 +16 +16 1015.7 1008.4
18 12.08 ЮЗ 1 20 км 10/4 600 м
[Sc Ac trans Ci fib]
+14.6 +13.0 90 +15 +15 1015.3 1007.9
21 12.08 штиль 0 50 км 10/4 600 м
[Sc Ac und]
+14.7 +13.4 92 +14 +15 1015.5 1008.2 +14.3
00 13.08 ЮВ 1 50 км 10/3 600 м
[Sc Ac und]
+18.2 +13.5 74 +20 +22 1015.7 1008.4
03 13.08 В 1 50 км 8/8 600 м
[Sc]
+18.6 +13.9 74 +20 +24 1015.2 1008.0
06 13.08 В 1 50 км 9/9 600 м
[Sc]
+18.3 +13.9 76 +20 +21 1014.5 1007.2
09 13.08 В 2 50 км 10/10 600 м
[Sc]
+16.3 +12.7 79 +16 +16 1015.2 1007.8 +19.3
12 13.08 СЗ 1 20 км 10/10 600 м
[Sc]
+15.1 +12.9 87 +16 +16 1015.4 1008.0
15 13.08 З 1 20 км 8/0
[Ac As]
+13.7 +12.4 92 +14 +14 1014.9 1007.5
18 13.08 СЗ 1 20 км 10/0
[Ac und]
+13.4 +12.4 94 +13 +13 1014.1 1006.7
21 13.08 СЗ 1 50 км 9/9 600 м
[Sc]
+13.7 +12.7 94 +14 +14 1014.3 1006.9 +13.2
00 14.08 С 1 50 км 9/3 600 м
[Sc Ac trans]
+18.7 +13.8 73 +21 +25 комфорт 1013.3 1006.0
03 14.08 ЮВ 2 50 км 8/1 1000 м
[Cu hum Ac trans]
+19.4 +12.9 66 +21 +29 комфорт 1013.3 1006.1
06 14.08 ЮВ 1 50 км 8/0
[Ac trans Ci fib]
+20.3 +13.4 65 +24 +30 комфорт 1012.9 1005.6
09 14.08 Ю 1 50 км 3/0
[Ac lent]
+17.6 +13.0 74 +19 +19 1012.7 1005.5 +20.7
12 14.08 З 1 20 км ясно +14.3 +12.4 88 +15 +15 1013.2 1005.8
15 14.08 З 1 20 км ясно +12.5 +11.6 94 +12 +12 1013.1 1005.7
18 14.08 СЗ 2 20 км 9/9 600 м
[Sc]
+11.2 +10.6 96 +10 +10 1013.2 1005.7
21 14.08 СЗ 2 50 км 10/10 600 м
[Sc]
+12.8 +12.2 96 +12 +12 1013.5 1006.1 +11.1
00 15.08 штиль 0 50 км 6/6 600 м
[Sc]
+18.6 +14.4 77 +19 +24 1013.3 1006.0
03 15.08 ЮВ 2 50 км 3/3 600 м
[Sc diur, vesp]
+19.9 +14.9 73 +23 +34 комфорт 1012.9 1005.7
06 15.08 ЮВ 1 50 км 1/0
[Ci fib]
+20.8 +13.4 63 +24 +35 комфорт 1012.2 1005.0
09 15.08 В 1 50 км 4/3 600 м
[Sc diur, vesp Ci fib]
+18.1 +13.7 75 +19 +20 1012.7 1005.4 +20.8
12 15.08 штиль 0 20 км 10/10 600 м
[Sc diur, vesp]
+17.2 +14.2 83 +17 +17 1013.6 1006.3
15 15.08 СЗ 1 20 км 10/10 300 м
[St]
+15.7 +13.8 88 +16 +16 1013.6 1006.3
18 15.08 СЗ 1 20 км 10/10 300 м
[St]
+15.5 +13.7 89 +16 +16 1013.8 1006.5
21 15.08 СЗ 1 50 км 10/10 600 м
[Sc]
+15.7 +14.0 90 +16 +16 1014.4 1007.0 +15.2
00 16.08 СЗ 1 50 км 10/10 600 м
[Sc]
+18.1 +14.7 81 +19 +19 1014.6 1007.3
03 16.08 В 2 50 км 9/8 600 м
[Sc Ac As]
+19.3 +15.1 77 +21 +24 комфорт 1014.2 1007.0
06 16.08 В 2 50 км 9/9 600 м
[Sc]
+18.7 +14.9 79 +20 +21 1014.1 1006.8
09 16.08 СВ 1 50 км 8/8 600 м
[Sc]
+17.5 +13.6 78 +19 +19 1014.4 1007.1 +19.8
12 16.08 С 1 20 км 10/10 600 м
[Sc]
+16.9 +13.3 79 +18 +18 1015.6 1008.3
15 16.08 СЗ 1 20 км 10/10 600 м
[Sc]
+16.0 +13.8 87 +17 +17 1015.5 1008.1
18 16.08 З 1 20 км 8/8 600 м
[Sc]
+14.3 +12.8 91 +15 +15 1015.5 1008.1
21 16.08 З 1 50 км 10/10 600 м
[Sc]
+14.2 +12.7 91 +14 +14 1015.9 1008.5 +13.4

 

Местоположение метеостанции Терней (Приморский край, Россия): широта 45.00 долгота 136.60 высота над уровнем моря 62 м.

В архиве по умолчанию представлена погода в Тернее за последнюю неделю. Архивные данные за месяц целиком и за предыдущие месяцы, начиная с января 2011 года, Вы можете получить, выбрав интересующий диапазон дат из раскрывающегося списка и нажав кнопку "Ввод!".

Внимание! Время в таблицах - всемирное. Для получения местного времени необходимо прибавить поправку, которая в Тернее равна 10 ч.

Смотрите также архив погоды в соседних городах и на ближайших метеорологических станциях:

Погода в Малой Кеме (Приморский край, Россия) (59 км)
Погода в Рудной Пристани (Приморский край, Россия) (94 км)
Погода в Мельничном (Приморский край, Россия) (100 км)
Погода в Богополе (Приморский край, Россия) (126 км)
Погода в Кавалерово (Приморский край, Россия) (152 км)
Погода в Глубинном (Приморский край, Россия) (156 км)
Погода в Охотничем (Приморский край, Россия) (171 км)
Погода в Ольге (Приморский край, Россия) (173 км)
Погода в Малиново (Приморский край, Россия) (194 км)
Погода в Красном Яре (Приморский край, Россия) (198 км)

Пояснения к столбцам:

Ветер - указаны скорость ветра в м/с - средняя за 10 мин, порывы в срок и между сроками (в фигурных скобках) и направление, откуда дует ветер: С - северный, СВ - северо-восточный, В - восточный, ЮВ - юго-восточный, Ю - южный, ЮЗ - юго-западный, З - западный, СЗ - северо-западный.
Видимость - горизонтальная дальность видимости в метрах или километрах. При видимости от 1 до 10 км при отсутствии осадков обычно наблюдается дымка, при ухудшении видимости до 1 км и менее - туман. В сухую погоду видимость может ухудшаться дымом, пылью или мглою.
Явления - указаны атмосферные явления, наблюдавшиеся в срок или в последний час перед сроком; фигурными скобками обозначены явления, наблюдавшиеся между сроками (за 1-3 часа до срока); квадратными скобками обозначены град или гололедные отложения с указанием их диаметра в мм.
Облачность - указаны через наклонную черту общая и нижняя облачность в баллах и высота нижней границы облаков в метрах; квадратными скобками обозначены формы облаков: Ci - перистые, Cs - перисто-слоистые, Cc - перисто-кучевые, Ac - высококучевые, As - высокослоистые, Sc - слоисто-кучевые, Ns - слоисто-дождевые, Cu - кучевые, Cb - кучево-дождевые. Подробнее классификацию облаков см. в Атласе облаков (PDF).
T - Температура воздуха - температура, измеренная на высоте 2 м над землей.
Td - Температура точки росы - температура, при понижении до которой содержащийся в воздухе водяной пар достигнет насыщения.
f - Относительная влажность воздуха - влажноcть воздуха, измеренная на высоте 2 м над землей.
Te - Эффективная температура - температура, которую ощущает одетый по сезону человек в тени. Характеристика душности погоды. При расчете учитывается влияние влажности воздуха и скорости ветра на теплоощущения человека.
Tes - Эффективная температура на солнце - температура, которую ощущает человек, с поправкой на солнечный нагрев. Характеристика знойности погоды. Зависит от высоты солнца над горизонтом, облачности и скорости ветра. Ночью, в пасмурную погоду, а также при ветре 12 м/с и более поправка равна нулю.
P - Атмосферное давление - приведенное к уровню моря атмосферное давление.
Po - Атмосферное давление - измеренное на уровне метеостанции атмосферное давление.
Tmin - Минимальная температура - минимум температуры воздуха на высоте 2 м над землей.
Tmax - Максимальная температура - максимум температуры воздуха на высоте 2 м над землей.
R - Количество осадков - Количество выпавших осадков за период времени, мм. При наведении курсора мыши на число - период времени, за который выпало указанное количество осадков.
R24 - Количество осадков - Количество выпавших осадков за 24 часа, мм.
S - Снежный покров - Высота снежного покрова, см. При наведении курсора мыши на число - состояние снежного покрова и степень покрытия местности в баллах.